FW9241 Weather Reports


time (UTC)temp
F
wind
direction
speed
knots
gust
knots
rain 1hr
in
rain 24hr
in
rain mn
in
humidity
%
barometer
mb
20260504081554 38 0 0.0 0.0 0.00 0.00 0.00 73 1009.8
20260504044555 34 0 0.0 0.0 0.00 0.00 0.00 78 1010.2
20260504043100 34 0 0.0 0.0 0.00 0.00 0.00 74 1010.2
20260504041557 35 0 0.0 0.0 0.00 0.00 0.00 75 1010.2
20260504040056 36 0 0.0 0.0 0.00 0.00 0.00 73 1010.0
20260504034554 36 0 0.0 0.0 0.00 0.00 0.00 71 1010.2
20260504033059 36 0 0.0 0.0 0.00 0.00 0.00 70 1010.0
20260504031602 37 0 0.0 0.0 0.00 0.00 0.00 68 1009.8
20260504030056 37 0 0.0 0.0 0.00 0.00 0.00 68 1009.8
20260504024601 38 0 0.0 0.0 0.00 0.00 0.00 67 1009.9
20260504023148 39 0 0.0 0.0 0.00 0.00 0.00 66 1009.9
20260504023056 39 0 0.0 0.0 0.00 0.00 0.00 66 1009.9
20260504021559 39 0 0.0 0.0 0.00 0.00 0.00 60 1010.0
20260504020131 40 0 0.0 0.0 0.00 0.00 0.00 58 1009.8
20260504014604 41 0 0.0 0.0 0.00 0.00 0.00 58 1009.8
20260504013117 41 0 0.0 0.0 0.00 0.00 0.00 56 1009.7
20260504011555 42 0 0.0 0.0 0.00 0.00 0.00 51 1009.4
20260504010055 43 0 0.0 0.0 0.00 0.00 0.00 51 1009.2
20260504004630 44 0 0.0 0.0 0.00 0.00 0.00 52 1009.2
20260504003101 44 0 0.0 0.0 0.00 0.00 0.00 49 1009.0
20260504001621 45 0 0.0 0.9 0.00 0.00 0.00 44 1008.6
20260504000105 46 0 0.0 0.9 0.00 0.00 0.00 44 1008.4
20260503234604 47 0 0.0 0.9 0.00 0.00 0.00 41 1008.2
20260503233101 48 0 0.0 3.5 0.00 0.00 0.00 39 1008.2
20260503231557 48 293 0.9 3.5 0.00 0.00 0.00 38 1008.0
20260503230115 49 286 0.9 4.3 0.00 0.00 0.00 38 1008.0
20260503224604 49 311 1.7 4.3 0.00 0.00 0.00 37 1008.0
20260503223056 50 343 1.7 9.6 0.00 0.00 0.00 38 1007.9
20260503221603 50 275 1.7 5.2 0.00 0.00 0.00 38 1007.8
20260503220056 49 0 1.7 6.1 0.00 0.00 0.00 40 1007.7
20260503214600 49 269 1.7 7.8 0.00 0.00 0.00 40 1007.8
20260503213056 49 295 1.7 6.1 0.00 0.00 0.00 40 1007.6
20260503211556 49 305 1.7 9.6 0.00 0.00 0.00 42 1007.6
20260503210056 48 246 0.9 9.6 0.00 0.00 0.00 43 1007.7
20260503204555 48 264 1.7 9.6 0.00 0.00 0.00 43 1007.7
20260503203112 48 331 2.6 5.2 0.00 0.00 0.00 43 1007.7
20260503201557 48 272 1.7 9.6 0.00 0.00 0.00 44 1007.6
20260503200100 47 335 1.7 6.1 0.00 0.00 0.00 43 1007.7
20260503194603 47 283 1.7 5.2 0.00 0.00 0.00 44 1007.9
20260503193100 46 278 1.7 7.8 0.00 0.00 0.00 45 1007.9
20260503191558 46 260 2.6 7.8 0.00 0.00 0.00 44 1007.9
20260503190108 47 323 1.7 7.0 0.00 0.00 0.00 43 1007.9
20260503184559 47 279 2.6 11.3 0.00 0.00 0.00 43 1007.9
20260503183103 48 307 0.9 5.2 0.00 0.00 0.00 45 1007.9
20260503181606 48 346 1.7 7.0 0.00 0.00 0.00 44 1007.9
20260503180113 48 340 1.7 8.7 0.00 0.00 0.00 43 1007.6
20260503174600 47 21 1.7 8.7 0.00 0.00 0.00 46 1007.6
20260503173106 47 303 1.7 7.0 0.00 0.00 0.00 42 1007.5
20260503171603 46 310 1.7 7.0 0.00 0.00 0.00 46 1007.7